Darstellungsparameter: Aktuell verwendete Einstellungen:
Skalierung der Graphiken ... ?
xyx+y,   Skalierungsfaktor:      Skalierung: Modus: x, Faktor: 1
Darstellungszeitraum ... ?
Vom - - bis: - -   Zeitraum: 13.04.2021 - 14.04.2021
Min/Max/Avg-Anzeige ... ?
Zeige MMA aktuell
Zeige MMA Monat
Zeige MMA alles
Zeige --A aktuell
Zeige --A Monat
Zeige --A alles
Keine MMA-Anzeige
MMA:
Minimum Maximum Average (ber die Originaldaten)
MMA-Basis: 14.04.2020 - 16.05.2020
Quicknavigation für Darstellung... ?
Tage:      1T, 2T, 3T, 5T -1T -2T -3T -5T +1T +2T +3T +5T
Wochen: 1W, 2W, 3W -1W -2W -3W +1W +2W +3W
Monate: 1M, 3M, 6M -1M -3M -6M +1M +3M +6M
Jahre:    1J, 3J, 5J, 10J -1J -3J -5J -10J +1J +3J +5J +10J
Nutze für die Darstellung ... ?
Originaldaten oder Mittelwerte auf ...
Stundenbasis Tagesbasis Wochenbasis
Monatsbasis Jahresbasis      Datenbasis: Original-Daten
Darstellen als:
Statistik (Auto) Statistik J:M      Darstellung:

Der gewünschte Datumsbereich war nicht gültig/verfügbar und wurde korrigiert....
Das angegebene Enddatum (04.03.2022 23:59:59) liegt in der Zukunft.
Das angegebene Startdatum (13.11.2021 00:00:00) liegt in der Zukunft.


Zur Graphik,    zurück zur Übersicht aller Sensoren.
 
Tabellarische Datenbersicht: ?
 
Sensor: Nr:Datum:Temp:Abs-Feuchte:Windchill:Wind:
Aussen-T/F 1 13-04-2021 02:00:00 -0.3 C 4.46 g/m*3 -0.3 C 0 km/h
2 13-04-2021 02:05:00 -0.4 C 4.43 g/m*3 -0.4 C 0 km/h
3 13-04-2021 02:10:00 -0.4 C 4.43 g/m*3 -0.4 C 0 km/h
4 13-04-2021 02:15:00 -0.4 C 4.43 g/m*3 -0.4 C 0 km/h
5 13-04-2021 02:20:00 -0.4 C 4.43 g/m*3 -0.4 C 0 km/h
6 13-04-2021 02:25:00 -0.5 C 4.4 g/m*3 -0.5 C 0 km/h
7 13-04-2021 02:30:00 -0.5 C 4.4 g/m*3 -0.5 C 0 km/h
8 13-04-2021 02:35:00 -0.6 C 4.37 g/m*3 -0.6 C 0 km/h
9 13-04-2021 02:40:00 -0.6 C 4.37 g/m*3 -0.6 C 0 km/h
10 13-04-2021 02:45:00 -0.7 C 4.34 g/m*3 -0.7 C 0 km/h
11 13-04-2021 02:50:00 -0.7 C 4.34 g/m*3 -0.7 C 0 km/h
12 13-04-2021 02:55:00 -0.7 C 4.34 g/m*3 -0.7 C 0 km/h
13 13-04-2021 03:00:00 -0.8 C 4.31 g/m*3 -0.8 C 0 km/h
14 13-04-2021 03:05:00 -0.8 C 4.31 g/m*3 -0.8 C 0 km/h
15 13-04-2021 03:10:00 -0.9 C 4.28 g/m*3 -0.9 C 0 km/h
16 13-04-2021 03:15:00 -0.9 C 4.28 g/m*3 -0.9 C 0 km/h
17 13-04-2021 03:20:00 -0.9 C 4.28 g/m*3 -0.9 C 0 km/h
18 13-04-2021 03:25:00 -1 C 4.25 g/m*3 -1 C 0 km/h
19 13-04-2021 03:30:00 -1.1 C 4.22 g/m*3 -1.1 C 0 km/h
20 13-04-2021 03:35:00 -1.1 C 4.22 g/m*3 -1.1 C 0 km/h
21 13-04-2021 03:40:00 -1.1 C 4.22 g/m*3 -1.1 C 0 km/h
22 13-04-2021 03:45:00 -1.1 C 4.22 g/m*3 -1.1 C 0 km/h
23 13-04-2021 03:50:00 -1.1 C 4.22 g/m*3 -1.1 C 0 km/h
24 13-04-2021 03:55:00 -1.2 C 4.19 g/m*3 -1.2 C 0 km/h
25 13-04-2021 04:00:00 -1.2 C 4.19 g/m*3 -1.2 C 0 km/h
Sensor: Nr:Datum:Temp:Abs-Feuchte:Windchill:Wind:
Aussen-T/F 26 13-04-2021 04:05:00 -1.2 C 4.19 g/m*3 -1.2 C 0 km/h
27 13-04-2021 04:10:00 -1.2 C 4.24 g/m*3 -1.2 C 0 km/h
28 13-04-2021 04:15:00 -1.2 C 4.24 g/m*3 -1.2 C 0 km/h
29 13-04-2021 04:20:00 -1.2 C 4.24 g/m*3 -1.2 C 0 km/h
30 13-04-2021 04:25:00 -1.3 C 4.21 g/m*3 -1.3 C 0 km/h
31 13-04-2021 04:30:00 -1.3 C 4.21 g/m*3 -1.3 C 0 km/h
32 13-04-2021 04:35:00 -1.3 C 4.21 g/m*3 -1.3 C 0 km/h
33 13-04-2021 04:40:00 -1.3 C 4.21 g/m*3 -1.3 C 0 km/h
34 13-04-2021 04:45:00 -1.3 C 4.21 g/m*3 -1.3 C 0 km/h
35 13-04-2021 04:50:00 -1.3 C 4.21 g/m*3 -1.3 C 0 km/h
36 13-04-2021 04:55:00 -1.3 C 4.21 g/m*3 -1.3 C 0 km/h
37 13-04-2021 05:00:00 -1.3 C 4.21 g/m*3 -1.3 C 0 km/h
38 13-04-2021 05:05:00 -1.3 C 4.21 g/m*3 -1.3 C 0 km/h
39 13-04-2021 05:10:00 -1.3 C 4.21 g/m*3 -1.3 C 0 km/h
40 13-04-2021 05:15:00 -1.3 C 4.21 g/m*3 -1.3 C 0 km/h
41 13-04-2021 05:20:00 -1.3 C 4.21 g/m*3 -1.3 C 0 km/h
42 13-04-2021 05:25:00 -1.4 C 4.18 g/m*3 -1.4 C 0 km/h
43 13-04-2021 05:30:00 -1.4 C 4.18 g/m*3 -1.4 C 0 km/h
44 13-04-2021 05:35:00 -1.4 C 4.18 g/m*3 -1.4 C 0 km/h
45 13-04-2021 05:40:00 -1.4 C 4.18 g/m*3 -1.4 C 0 km/h
46 13-04-2021 05:45:00 -1.4 C 4.18 g/m*3 -1.4 C 0 km/h
47 13-04-2021 05:50:00 -1.4 C 4.18 g/m*3 -1.4 C 0 km/h
48 13-04-2021 05:55:00 -1.3 C 4.21 g/m*3 -1.3 C 0 km/h
49 13-04-2021 06:00:00 -1.4 C 4.18 g/m*3 -1.4 C 0 km/h
50 13-04-2021 06:05:00 -1.4 C 4.18 g/m*3 -1.4 C 0 km/h
Sensor: Nr:Datum:Temp:Abs-Feuchte:Windchill:Wind:
Aussen-T/F 51 13-04-2021 06:10:00 -1.4 C 4.18 g/m*3 -1.4 C 0 km/h
52 13-04-2021 06:15:00 -1.4 C 4.18 g/m*3 -1.4 C 0 km/h
53 13-04-2021 06:20:00 -1.4 C 4.18 g/m*3 -1.4 C 0 km/h
54 13-04-2021 06:25:00 -1.3 C 4.21 g/m*3 -1.3 C 0 km/h
55 13-04-2021 06:30:00 -1.3 C 4.21 g/m*3 -1.3 C 0 km/h
56 13-04-2021 06:35:00 -1.3 C 4.21 g/m*3 -1.3 C 0 km/h
57 13-04-2021 06:40:00 -1.4 C 4.18 g/m*3 -1.4 C 0 km/h
58 13-04-2021 06:45:00 -1.4 C 4.18 g/m*3 -1.4 C 0 km/h
59 13-04-2021 06:50:00 -1.4 C 4.18 g/m*3 -1.4 C 0 km/h
60 13-04-2021 06:55:00 -1.5 C 4.15 g/m*3 -1.5 C 0 km/h
61 13-04-2021 07:00:00 -1.5 C 4.15 g/m*3 -1.5 C 0 km/h
62 13-04-2021 07:05:00 -1.5 C 4.15 g/m*3 -1.5 C 0 km/h
63 13-04-2021 07:10:00 -1.4 C 4.18 g/m*3 -1.4 C 0 km/h
64 13-04-2021 07:15:00 -1.4 C 4.18 g/m*3 -1.4 C 0 km/h
65 13-04-2021 07:20:00 -1.3 C 4.21 g/m*3 -1.3 C 0 km/h
66 13-04-2021 07:25:00 -1.3 C 4.25 g/m*3 -1.3 C 0 km/h
67 13-04-2021 07:30:00 -1.2 C 4.28 g/m*3 -1.2 C 1.6 km/h
68 13-04-2021 07:35:00 -1.2 C 4.28 g/m*3 -1.2 C 4.8 km/h
69 13-04-2021 07:40:00 -1.1 C 4.31 g/m*3 -1.1 C 0 km/h
70 13-04-2021 07:45:00 -1.1 C 4.31 g/m*3 -1.1 C 0 km/h
71 13-04-2021 07:50:00 -1 C 4.29 g/m*3 -1 C 0 km/h
72 13-04-2021 07:55:00 -1 C 4.29 g/m*3 -1 C 1.6 km/h
73 13-04-2021 08:00:00 -0.9 C 4.37 g/m*3 -0.9 C 1.6 km/h
74 13-04-2021 08:05:00 -0.8 C 4.4 g/m*3 -0.8 C 1.6 km/h
75 13-04-2021 08:10:00 -0.7 C 4.43 g/m*3 -0.7 C 3.2 km/h
Sensor: Nr:Datum:Temp:Abs-Feuchte:Windchill:Wind:
Aussen-T/F 76 13-04-2021 08:15:00 -0.5 C 4.49 g/m*3 -0.5 C 0 km/h
77 13-04-2021 08:20:00 -0.3 C 4.56 g/m*3 -0.3 C 3.2 km/h
78 13-04-2021 08:25:00 -0.2 C 4.59 g/m*3 -0.2 C 3.2 km/h

Legende:
   Min
   Max


Maximal/Minimal-Werte vom 14.04.2020 - 16.05.2020

Sensor Min Max Avg
Temp
(Aussen-T/F)
-0.1 °C
15-04-2020  06:55:00
26.2 °C
17-04-2020  18:05:00
11.98 °C

Die Daten stammen von einer Davis Vantage Pro 2 Wetter-Station und werden unter Linux mit der Software wview2wettercgi und aufbereitet. Alle Angaben erfolgen ohne Gewähr für ihre Vollständigkeit oder Richtigkeit.
Kontakt: Rainer Krienke krienke@uni-koblenz.de . Meine Webseiten an der Uni Koblenz oder privat.
Version: $Revision: 0.78 $